Weather History for KROW - October, 2012

Change the Weather History Date:

Wednesday, October 24, 2012

  Actual Average Record
Temperature  
Mean Temperature 74 °F 58 °F  
Max Temperature 91 °F 73 °F 91 °F (2012)
Min Temperature 56 °F 43 °F 23 °F (1906)
Degree Days  
Heating Degree Days 0 7  
Month to date heating degree days 47 99  
Since 1 July heating degree days 56 115  
Cooling Degree Days 9 0  
Month to date cooling degree days 57 35  
Year to date cooling degree days 2356 1786  
Growing Degree Days 23 (Base 50)    
Moisture  
Dew Point 37 °F    
Average Humidity 47    
Maximum Humidity 84    
Minimum Humidity 9    
Precipitation  
Precipitation 0.00 in 0.04 in 1.65 in (1914)
Month to date precipitation 0.53 1.00  
Year to date precipitation 6.05 11.46  
Sea Level Pressure  
Sea Level Pressure 29.67 in    
Wind  
Wind Speed 12 mph (South)    
Max Wind Speed 30 mph    
Max Gust Speed 36 mph    
Visibility 10 miles    
Events      
T = Trace of Precipitation, MM = Missing Value Source: NWS Daily Summary

Daily Weather History Graph

Daily Weather History Graph

Search for Another Location

Airport or City:

Trip Planner

Search our weather history database for the weather conditions in past years. The results will help you decide how hot, cold, wet, or windy it might be!

Date:

Astronomy

Oct. 24, 2012 Rise Set
Actual Time 7:10 AM MDT 6:13 PM MDT
Civil Twilight 6:44 AM MDT 6:39 PM MDT
Nautical Twilight 6:15 AM MDT 7:08 PM MDT
Astronomical Twilight 5:47 AM MDT 7:36 PM MDT
Moon 3:18 PM MDT (10/24) 2:22 AM MDT (10/24)
Length of Visible Light 11h 54m
Length of Day
11h 03m
Waxing Gibbous, 76% of the Moon is Illuminated
Oct 24
Waxing Gibbous
Oct 29
Full
Nov 6
Last Quarter
Nov 13
New
Nov 20
First Quarter

Hourly Weather History & Observations

Time (MDT) Temp. Dew Point Humidity Pressure Visibility Wind Dir Wind Speed Gust Speed Precip Events Conditions
12:51 AM 61.0 °F 33.1 °F 35% 29.73 in 10.0 mi SSE 4.6 mph - N/A   Clear
1:51 AM 66.9 °F 33.1 °F 28% 29.71 in 10.0 mi SSW 11.5 mph - N/A   Clear
2:51 AM 63.0 °F 34.0 °F 34% 29.71 in 10.0 mi South 8.1 mph - N/A   Clear
3:51 AM 63.0 °F 34.0 °F 34% 29.69 in 10.0 mi South 10.4 mph - N/A   Clear
4:51 AM 61.0 °F 37.9 °F 42% 29.69 in 10.0 mi SSE 11.5 mph - N/A   Clear
5:51 AM 60.1 °F 43.0 °F 53% 29.72 in 10.0 mi SSE 6.9 mph - N/A   Clear
7:26 AM 57.2 °F 46.4 °F 67% 29.89 in 10.0 mi SE 5.8 mph - N/A   Scattered Clouds
7:51 AM 61.0 °F 55.9 °F 83% 29.75 in 10.0 mi South 13.8 mph 20.7 mph N/A   Clear
8:51 AM 62.1 °F 57.0 °F 84% 29.76 in 10.0 mi South 8.1 mph - N/A   Clear
9:51 AM 64.9 °F 57.9 °F 78% 29.77 in 10.0 mi South 9.2 mph - N/A   Clear
10:51 AM 66.9 °F 55.9 °F 68% 29.74 in 10.0 mi SSE 10.4 mph - N/A   Clear
12:51 PM 75.0 °F 48.9 °F 40% 29.69 in 10.0 mi East 4.6 mph - N/A   Clear
1:51 PM 79.0 °F 46.9 °F 32% 29.63 in 10.0 mi SE 8.1 mph - N/A   Clear
2:51 PM 88.0 °F 30.9 °F 13% 29.56 in 10.0 mi South 21.9 mph 28.8 mph N/A   Clear
3:01 PM 84.2 °F 37.4 °F 19% 29.75 in 10.0 mi NNW 10.4 mph 29.9 mph N/A   Clear
3:51 PM 91.0 °F 27.0 °F 10% 29.54 in 10.0 mi SSW 21.9 mph 31.1 mph N/A   Clear
4:51 PM 87.1 °F 23.0 °F 10% 29.56 in 10.0 mi SSW 23.0 mph 35.7 mph N/A   Clear
5:51 PM 82.9 °F 27.0 °F 13% 29.57 in 10.0 mi South 21.9 mph 29.9 mph N/A   Clear
6:51 PM 77.0 °F 27.0 °F 16% 29.59 in 10.0 mi SSW 17.3 mph - N/A   Clear
7:51 PM 73.0 °F 27.0 °F 18% 29.62 in 10.0 mi South 16.1 mph - N/A   Clear
8:51 PM 73.9 °F 28.0 °F 18% 29.61 in 10.0 mi South 20.7 mph 28.8 mph N/A   Clear
9:51 PM 70.0 °F 28.0 °F 21% 29.62 in 10.0 mi SSW 16.1 mph - N/A   Clear
10:51 PM 64.0 °F 28.0 °F 26% 29.64 in 10.0 mi SSW 6.9 mph - N/A   Clear
11:51 PM 62.1 °F 28.0 °F 28% 29.65 in 10.0 mi SSW 9.2 mph - N/A   Clear